Theta_e
299 298 299 298 298 298 298 299 298 297 296 296 296 296 295 296 296 297 296 297 298 299 299 300 301 300 301 312 316 314 315 316 315 315 315 315 315 315 314 313 314 314 314 316 318 317 317
297 297 299 298 298 297 296 296 296 297 298 296 295 296 295 295 296 297 297 297 297 298 300 300 302 301 302 309 305 310 317 313 313 311 314 316 317 317 316 314 314 315 315 315 317 317 317
298 297 300 298 298 297 296 296 296 297 297 297 297 297 295 294 296 297 298 298 298 298 300 302 304 305 304 302 303 311 316 316 313 309 312 313 314 317 316 315 315 315 314 312 312 315 316
298 297 297 297 297 297 296 296 297 297 297 297 297 296 296 294 294 296 297 297 298 299 300 303 304 305 305 301 301 302 304 313 312 310 311 311 313 317 317 318 316 315 313 313 312 313 316
299 299 298 298 297 297 297 297 297 297 297 298 297 297 296 293 293 294 297 297 296 299 300 304 304 304 305 302 302 302 304 304 308 313 316 314 313 317 317 313 313 312 312 311 314 312 314
299 298 298 298 297 296 298 298 298 297 295 296 297 297 296 293 291 293 294 295 296 299 301 304 305 304 302 301 304 306 315 315 313 312 316 316 315 314 311 312 315 313 311 311 313 314 313
298 297 297 297 295 296 297 297 297 297 297 296 295 294 295 296 292 295 296 296 300 304 304 303 303 304 303 306 303 311 316 318 318 318 316 315 315 318 318 315 315 312 311 312 311 312 314
297 297 296 296 294 296 297 297 296 295 295 296 295 292 296 295 294 296 298 298 298 301 303 303 305 305 303 303 304 305 309 317 317 316 312 316 316 315 317 315 313 314 314 313 312 312 313
295 296 296 295 296 296 295 296 296 295 294 295 294 296 296 294 295 297 299 301 302 300 302 303 304 304 305 305 306 304 303 317 312 314 314 313 312 316 317 315 315 315 315 316 314 313 312
297 295 295 296 296 294 294 295 294 294 295 295 295 295 294 295 296 298 298 301 301 303 301 302 304 305 305 306 306 304 301 311 314 314 313 312 312 315 316 317 317 318 314 315 314 314 315
293 297 295 296 295 295 294 293 293 296 295 295 295 293 293 295 296 296 297 299 300 303 300 301 305 306 306 306 304 305 303 307 316 314 311 313 313 313 315 318 317 317 315 314 314 313 312
294 296 296 296 296 296 295 294 294 295 294 294 296 295 295 295 295 295 298 299 298 303 298 302 306 308 305 306 307 306 304 306 310 314 316 316 315 314 316 317 318 317 317 316 314 313 315
295 292 295 296 294 296 295 295 293 293 295 295 296 295 296 296 296 295 295 298 299 304 301 303 306 309 307 308 308 307 313 312 312 317 318 317 317 315 315 319 318 318 316 319 318 316 316
296 296 296 294 295 296 296 294 294 293 295 295 296 296 295 294 297 295 296 297 300 301 303 303 303 304 310 310 309 307 306 311 311 311 316 317 318 315 314 315 319 319 319 319 318 316 316
293 295 296 295 296 296 294 294 292 293 295 296 296 294 293 301 300 297 297 297 293 302 305 306 305 303 305 311 311 309 307 306 310 312 313 316 318 313 314 314 314 315 319 318 318 317 316
293 293 294 293 292 292 293 295 293 294 295 296 296 294 296 300 300 296 299 294 297 304 304 306 307 304 304 305 310 311 311 311 308 307 312 314 315 315 314 314 313 314 315 315 318 322 320
293 292 293 296 294 295 294 293 293 294 295 296 295 294 298 300 298 299 300 297 301 301 303 306 307 308 307 307 305 307 311 311 310 312 307 312 315 315 316 315 316 315 315 315 315 318 319
292 292 292 293 292 294 293 294 295 294 295 295 294 290 296 297 300 300 298 301 300 300 302 304 306 307 308 307 306 307 307 308 310 309 309 309 313 315 315 314 314 315 316 315 317 318 317
293 294 292 292 291 292 293 294 295 295 296 295 294 294 295 298 301 302 299 302 302 302 302 303 306 306 306 307 307 307 308 309 311 310 310 312 314 315 315 314 315 318 317 316 316 316 318
294 294 293 292 292 292 294 295 295 295 295 294 294 289 295 298 298 299 295 298 301 301 303 304 303 304 304 305 307 307 308 308 308 308 309 311 310 310 312 314 312 316 317 317 316 318 317
295 294 293 293 291 293 294 295 296 294 294 294 294 288 294 287 290 289 294 298 299 302 303 303 306 304 304 306 304 305 305 306 307 307 310 310 313 312 311 312 313 313 314 316 317 317 319
295 294 294 292 291 293 294 296 294 294 295 293 293 293 295 293 293 296 292 288 299 299 298 300 301 302 303 307 308 308 305 305 306 307 308 309 312 312 312 312 313 312 313 315 316 316 316
295 294 294 293 291 293 294 295 293 294 294 294 293 293 294 294 293 290 289 295 297 295 295 297 298 299 298 300 302 304 305 305 305 307 307 309 309 310 310 311 313 313 312 313 313 311 313
294 294 294 294 293 292 294 295 295 294 295 294 294 294 294 292 292 293 295 295 295 295 295 295 297 298 299 299 300 300 302 302 303 304 306 307 308 309 310 310 311 309 309 311 312 311 312
294 294 294 294 294 292 292 294 295 294 292 293 294 294 295 291 294 294 294 294 294 294 294 294 294 298 299 300 302 301 302 304 304 303 304 306 307 307 310 309 308 308 309 312 313 313 312
294 294 293 293 294 293 293 292 294 295 295 293 292 294 293 293 292 293 293 293 293 293 293 297 298 295 300 302 303 301 298 302 305 304 305 306 306 307 299 309 308 307 306 308 310 312 309
293 293 293 293 293 293 293 292 292 294 294 295 295 293 292 293 293 293 293 292 294 295 292 293 295 295 297 301 304 299 301 303 304 305 306 306 307 308 307 307 307 305 305 307 309 308 308
293 293 293 293 293 293 293 293 292 292 293 293 293 294 294 294 293 293 293 293 293 293 293 293 293 296 298 302 302 298 298 301 303 304 303 305 305 306 308 309 308 305 305 307 307 307 307
293 293 293 293 293 293 293 292 292 292 291 292 292 293 293 294 293 293 293 293 293 293 293 293 294 294 297 298 300 303 305 304 304 305 303 305 304 303 305 305 304 306 305 306 307 307 307
Wind_Speed
9 11 11 11 11 12 12 14 15 16 17 18 20 20 20 20 20 19 19 20 20 19 19 19 20 17 15 11 22 8 7 7 4 5 4 2 6 4 3 3 2 3 3 8 12 9 14
11 7 9 12 13 13 13 14 15 16 18 19 19 21 21 20 20 21 20 20 20 19 17 17 17 20 15 16 19 25 31 26 18 12 2 2 2 2 5 5 4 3 7 10 10 8 8
12 8 9 9 12 14 15 15 14 15 16 19 20 21 22 21 19 20 21 22 20 19 18 15 15 16 22 34 15 15 20 28 26 18 13 10 9 6 2 3 5 6 6 9 9 8 7
12 10 8 11 12 13 13 13 13 15 15 17 18 19 21 22 21 21 22 22 23 19 18 14 13 14 16 18 19 24 27 25 24 19 17 15 11 9 5 6 4 1 1 3 3 10 9
11 11 12 13 13 14 14 15 14 15 15 16 17 17 18 22 22 22 22 24 25 21 16 11 13 11 15 14 16 13 16 30 28 25 20 17 12 6 4 4 3 3 5 5 5 8 1
9 11 11 13 13 13 14 14 17 16 15 16 17 19 20 21 22 22 24 26 22 15 10 10 12 8 16 11 10 11 9 8 13 15 16 11 9 3 3 5 13 7 4 4 5 3 3
10 10 11 13 15 12 13 15 15 17 19 19 20 21 21 22 22 20 23 25 10 4 4 10 7 13 6 8 13 12 4 6 8 8 9 6 4 12 20 13 5 4 5 5 2 5 3
10 12 13 14 13 12 14 15 17 18 20 18 19 17 19 21 22 20 18 12 14 14 14 19 26 33 36 33 14 15 5 9 9 11 8 4 17 21 9 8 6 6 6 7 4 6 1
10 10 12 13 13 14 14 15 17 20 20 18 16 17 19 21 20 16 14 14 17 15 8 17 27 27 29 18 16 33 13 6 5 5 13 16 24 11 12 6 8 13 14 13 11 3 5
10 11 12 13 13 16 14 16 20 19 19 19 16 18 20 19 15 11 15 10 11 8 5 7 8 11 21 17 9 25 33 13 6 9 8 10 17 13 21 18 15 19 8 8 6 4 7
11 11 12 13 15 14 16 19 15 16 18 21 19 17 17 13 20 20 16 15 19 5 5 4 5 3 10 21 6 15 31 24 14 7 7 12 12 20 23 19 14 13 7 9 7 7 1
12 11 12 12 14 15 18 20 16 18 19 17 18 18 18 19 19 15 9 12 17 3 7 6 4 2 4 12 5 2 14 15 11 6 10 10 7 10 24 17 11 5 7 7 4 5 9
11 12 12 13 14 17 19 21 18 17 15 17 18 20 21 22 20 18 13 9 3 4 6 5 2 4 3 1 3 4 2 7 8 7 11 13 20 9 8 15 16 7 6 4 6 5 11
10 11 10 12 13 16 19 21 16 14 15 17 21 24 25 22 14 13 3 3 4 4 8 7 6 7 4 6 5 8 3 4 7 6 2 12 11 15 7 12 10 19 15 5 11 12 17
11 11 13 13 13 15 19 20 14 12 15 18 26 26 17 7 7 13 9 2 6 3 5 12 13 4 4 4 4 3 6 8 7 14 12 5 10 4 12 12 13 8 17 22 7 4 3
11 12 14 15 15 15 15 17 12 12 14 21 27 23 7 9 5 19 2 5 5 4 7 6 4 5 5 7 3 2 4 3 4 7 14 7 12 7 10 16 18 20 9 10 11 19 21
11 12 12 13 12 14 16 15 11 10 14 20 21 9 7 8 15 11 3 6 6 15 10 5 3 5 5 6 6 5 3 3 1 9 6 1 5 7 3 11 16 13 17 12 5 15 17
10 11 14 15 9 10 12 9 13 12 15 18 12 3 3 2 2 4 3 4 8 12 16 5 3 5 5 3 7 6 4 5 13 10 7 6 2 9 17 15 6 11 23 24 15 12 9
11 10 13 13 10 10 9 10 11 13 15 16 12 5 2 3 2 2 5 6 11 7 10 4 4 3 6 4 5 6 5 7 8 7 5 2 5 5 7 11 15 12 12 7 17 17 20
11 11 12 12 10 7 8 10 10 11 11 12 4 3 3 1 4 2 4 4 6 8 9 11 9 8 10 12 7 6 3 6 19 17 16 10 3 8 8 6 4 8 13 20 13 12 17
12 12 12 11 6 4 5 9 10 11 9 6 2 2 2 3 3 2 3 3 7 4 4 5 4 12 12 6 7 14 10 5 9 21 7 11 5 6 13 14 14 14 20 16 9 21 15
11 12 12 10 7 6 6 9 10 3 4 4 3 2 2 8 14 5 3 4 7 5 7 8 9 14 14 8 3 9 10 8 10 6 8 2 3 4 15 10 9 14 15 14 13 12 4
12 12 12 12 7 6 6 9 7 6 7 5 5 9 7 6 3 1 4 3 4 11 11 8 12 14 16 14 17 18 16 16 16 10 4 2 3 2 14 5 7 7 11 11 4 5 14
14 13 12 12 11 9 9 7 7 7 10 11 11 10 4 4 4 5 7 10 14 18 15 29 23 16 15 20 23 26 22 23 19 19 18 10 10 6 11 3 14 9 11 15 17 15 21
15 15 13 13 14 12 11 11 9 9 11 13 12 12 7 4 7 12 14 11 16 21 17 18 40 23 25 18 4 5 3 5 9 20 19 19 13 6 6 10 13 7 2 6 8 15 16
15 16 15 15 15 13 13 14 14 11 11 14 14 14 12 7 7 19 8 9 9 11 9 10 15 33 13 4 4 5 5 5 5 5 12 17 16 10 1 8 10 16 12 24 6 16 9
16 16 16 16 16 14 14 13 15 18 16 14 16 13 13 11 20 26 13 8 6 5 4 14 10 9 11 4 5 4 6 5 6 8 4 5 7 16 13 11 7 9 8 15 12 16 26
17 16 16 17 16 15 15 16 14 18 20 20 23 19 21 18 28 34 36 31 24 20 9 11 12 3 3 5 3 4 4 5 6 18 6 10 7 6 7 8 11 17 7 13 20 35 33
17 18 17 16 17 17 16 17 16 15 18 18 24 22 23 27 30 32 32 37 41 42 30 17 12 13 6 3 4 4 4 4 4 7 3 10 13 4 8 7 9 22 19 26 32 30 34
Wind_Direction
342 358 352 348 337 332 332 332 334 337 339 341 342 341 338 332 330 325 322 323 316 311 303 298 304 303 294 258 240 202 215 201 331 48 96 156 183 179 218 230 267 220 259 239 252 275 298
350 330 333 341 346 346 341 328 326 334 337 339 341 342 339 336 331 329 326 323 318 312 305 301 299 300 289 255 257 246 251 257 264 291 295 345 344 312 281 247 179 259 245 268 265 242 271
346 9 357 342 335 341 341 338 335 328 329 331 338 342 340 335 331 329 328 322 318 312 303 299 299 297 281 257 260 263 244 252 258 272 289 289 298 315 14 298 291 256 291 300 242 224 225
349 0 344 341 340 338 339 340 336 334 324 323 329 334 337 336 328 326 322 318 317 309 300 293 296 286 265 276 273 260 253 255 255 263 273 275 302 293 212 263 315 273 239 224 287 187 226
335 337 340 338 343 344 347 344 337 328 329 327 328 328 332 333 329 322 316 316 311 305 295 283 280 279 270 275 269 282 264 247 253 256 263 274 270 234 214 135 359 242 229 224 320 201 131
308 323 332 334 339 340 337 335 336 333 321 316 317 317 321 326 328 323 316 320 323 298 282 268 256 280 255 268 311 287 330 265 257 256 263 243 202 196 144 153 219 201 203 243 222 273 234
324 323 326 331 332 334 328 327 325 326 326 325 323 322 327 330 329 327 326 336 8 335 259 228 230 235 249 252 301 251 269 283 231 188 195 182 153 213 214 207 214 139 180 217 246 264 283
305 318 326 330 336 330 323 326 327 327 327 325 325 328 327 327 327 327 326 326 312 299 299 269 264 262 263 275 295 250 276 199 182 207 133 201 226 224 219 191 215 230 228 240 267 264 206
321 318 323 328 334 328 322 324 325 325 325 324 324 320 321 326 326 328 340 340 316 287 271 274 252 252 252 250 231 256 250 223 208 186 196 207 229 212 213 187 201 230 231 239 242 348 273
311 313 322 327 324 326 326 322 321 327 330 325 312 313 320 327 328 325 331 320 333 316 287 268 210 252 212 207 244 232 238 221 211 214 206 230 235 240 221 224 202 235 201 233 192 158 249
305 305 314 318 325 328 330 330 328 326 324 318 323 323 325 325 307 310 324 324 319 234 290 233 217 267 197 175 169 212 216 199 216 191 156 219 208 217 234 229 208 244 192 200 186 206 70
312 305 312 320 324 323 327 331 324 318 324 318 327 329 327 318 306 320 338 317 322 205 250 303 191 178 115 238 302 18 182 212 229 239 261 254 295 224 229 227 221 223 229 225 186 179 227
329 315 295 300 312 318 322 327 329 322 338 333 322 317 313 307 290 304 315 354 1 249 283 281 288 143 237 194 236 293 113 189 187 191 222 260 255 275 300 219 219 217 149 217 221 197 229
324 329 329 318 316 315 319 324 324 326 331 322 319 316 314 310 290 263 271 62 232 268 274 311 326 340 218 189 240 191 173 228 228 236 312 226 251 211 206 220 210 214 212 193 214 216 239
302 303 311 306 301 305 315 320 329 334 332 326 321 326 334 350 311 172 153 168 211 258 334 347 314 280 291 235 235 139 199 231 206 205 214 220 238 194 193 216 208 199 218 228 285 297 297
316 309 311 313 311 310 320 319 329 337 332 332 333 330 348 302 272 151 143 236 235 247 330 4 308 352 345 350 322 282 198 0 283 242 224 269 264 222 210 214 222 218 215 234 233 241 249
307 302 311 310 320 326 318 329 345 344 334 335 337 339 13 3 146 162 216 231 273 263 281 304 290 315 348 349 342 317 198 277 79 321 218 300 261 239 348 218 216 211 223 231 240 218 228
308 307 302 302 294 318 330 11 359 343 335 337 336 331 9 279 231 217 213 219 234 266 284 291 275 247 250 245 281 306 290 251 191 158 317 246 243 258 244 255 268 228 213 217 226 237 234
310 312 314 315 285 303 344 346 338 332 326 336 332 281 7 243 276 314 352 307 270 266 264 266 287 270 20 319 275 225 234 306 202 155 200 227 178 251 253 269 263 245 257 249 237 239 235
306 307 309 314 302 306 325 326 327 320 323 329 328 337 317 283 333 359 335 283 320 312 295 268 254 268 283 273 250 269 276 337 325 308 315 2 239 212 254 276 303 287 227 246 234 237 239
303 306 308 309 286 288 303 310 309 303 287 314 297 257 343 300 319 340 281 266 294 307 311 307 288 247 256 256 273 263 277 326 303 284 255 179 243 213 247 261 280 269 282 267 294 245 239
296 302 306 308 270 271 281 315 311 292 271 244 263 259 324 291 286 267 282 272 265 332 3 312 316 309 305 280 268 295 304 300 249 297 316 270 263 261 266 258 248 270 274 292 262 289 268
294 293 296 305 285 257 265 301 300 264 248 235 250 266 271 269 280 53 239 245 308 329 305 273 311 315 299 286 309 298 281 276 268 273 272 289 270 223 268 271 309 264 236 226 194 306 295
288 292 294 293 292 251 261 279 284 260 262 249 242 266 253 264 209 210 256 277 281 286 274 285 288 280 265 291 300 294 274 259 252 242 219 230 230 230 266 254 256 235 216 224 225 221 209
286 289 290 287 288 277 259 251 260 267 264 262 254 244 255 263 257 270 267 272 282 284 281 271 283 269 303 296 267 268 277 268 242 235 218 211 216 236 241 239 272 281 242 189 198 245 221
286 286 288 287 284 285 284 242 247 251 254 260 262 242 254 285 239 261 292 286 286 288 295 244 299 317 304 230 213 227 228 227 286 282 214 207 214 210 159 233 245 261 219 227 213 256 195
288 284 284 283 282 278 280 281 253 239 246 255 263 245 249 255 265 265 260 266 255 290 280 297 297 308 279 243 237 210 244 209 236 241 174 177 201 218 231 241 260 262 216 209 211 244 247
285 285 282 283 282 278 277 281 279 251 248 255 262 260 247 259 267 266 268 264 266 262 260 289 331 327 257 233 221 218 218 225 236 248 246 212 178 201 223 230 248 227 240 206 226 237 255
283 283 282 281 277 277 279 278 279 280 250 249 264 266 266 260 264 274 271 269 265 265 255 248 246 290 296 321 316 326 319 318 300 273 206 246 221 203 194 212 234 242 212 231 236 245 256